Regional Weather Roundup
Issued by NWS Northern Indiana

Home | Current Version | Previous Version | Graphics & Text | Print | Product List | Glossary On
Versions: 1 2 3 4 5 6 7 8 9 10 11 12 13 14 15 16 17 18 19 20 21 22 23 24 25 26 27 28 29 30 31 32 33 34 35 36 37 38 39 40 41 42 43 44 45 46 47 48 49 50
000
ASUS43 KIWX 240610
RWRIWX

KIWX WEATHER ROUNDUP
NATIONAL WEATHER SERVICE NORTHERN INDIANA
200 AM EDT THU JUL 24 2014

NOTE: "FAIR" INDICATES FEW OR NO CLOUDS BELOW 12,000 FEET WITH NO
SIGNIFICANT WEATHER AND/OR OBSTRUCTIONS TO VISIBILITY.

* THESE STATIONS ARE NOT UNDER NWS QUALITY CONTROL. THEY ALSO MAY NOT
  REPORT WEATHER SUCH AS PRECIPITATION OR FOG.

INZ001>027-240700-
NORTHERN INDIANA

CITY           SKY/WX    TMP DP  RH WIND       PRES   REMARKS
GARY*          PTCLDY    66  61  84 NE10G16   30.12F
VALPARAISO     CLEAR     59  56  89 NE5       30.11F
6HR MIN TEMP:  56; 6HR MAX TEMP:  66;

LAPORTE*       CLEAR     58  55  88 NE7       30.12S
6HR MIN TEMP:  58; 6HR MAX TEMP:  64;

SOUTH BEND     CLEAR     59  54  83 N8        30.11F
6HR MIN TEMP:  58; 6HR MAX TEMP:  68;

GOSHEN         CLEAR     61  56  83 N8        30.09S
6HR MIN TEMP:  60; 6HR MAX TEMP:  72;

MONTICELLO*    CLEAR     55  54  95 N3        30.08S
6HR MIN TEMP:  55; 6HR MAX TEMP:  67;

ANGOLA*        PTCLDY    61  55  82 NE3       30.09S
FORT WAYNE     MOCLDY    63  59  87 N5        30.08S
6HR MIN TEMP:  62; 6HR MAX TEMP:  72;

HUNTINGTON*    MOCLDY    60  59  94 N3        30.07S
6HR MIN TEMP:  60; 6HR MAX TEMP:  72;

PERU/GRISSOM   CLEAR     59  59 100 N3        30.07S
6HR MIN TEMP:  59; 6HR MAX TEMP:  71;


$$
INZ028>050-240700-
CENTRAL INDIANA

CITY           SKY/WX    TMP DP  RH WIND       PRES   REMARKS
LAFAYETTE      CLEAR     56  51  84 CALM      30.08F
6HR MIN TEMP:  55; 6HR MAX TEMP:  69;

KOKOMO*        MOCLDY    57  54  88 N5        30.08R
6HR MIN TEMP:  57; 6HR MAX TEMP:  73;

MUNCIE*        CLEAR     62  58  86 NE3       30.06S
6HR MIN TEMP:  62; 6HR MAX TEMP:  69;

INDIANAPOLIS   MOCLDY    62  55  77 N12       30.04F
6HR MIN TEMP:  62; 6HR MAX TEMP:  74;


$$
MIZ043>046-050>051-056>058-064>065-071>073-077>080-240700-
SOUTHWEST LOWER MICHIGAN

CITY           SKY/WX    TMP DP  RH WIND       PRES   REMARKS
BATTLE CREEK   CLOUDY    60  54  80 NE6       30.12S
6HR MIN TEMP:  59; 6HR MAX TEMP:  73;

BENTON HARBOR  CLEAR     56  54  93 NE3       30.12S
6HR MIN TEMP:  56; 6HR MAX TEMP:  63;

COLDWATER*     CLEAR     62  57  83 NE6       30.10S
6HR MIN TEMP:  62; 6HR MAX TEMP:  73;

HILLSDALE*     MOCLDY    62  57  82 NE3       30.10S
HOLLAND        CLEAR     59  52  77 CALM      30.14S
6HR MIN TEMP:  59; 6HR MAX TEMP:  68;

GRAND RAPIDS   CLOUDY    61  55  81 N6        30.13S
6HR MIN TEMP:  60; 6HR MAX TEMP:  71;

KALAMAZOO      CLEAR     56  52  86 N5        30.12S
6HR MIN TEMP:  56; 6HR MAX TEMP:  72;

STURGIS*       CLEAR     57  55  94 N6        30.10S
THREE RIVERS*  FAIR      60  56  88 N3        30.11S

$$
OHZ001>008-015>018-024>025-240700-
NORTHWEST OHIO

CITY           SKY/WX    TMP DP  RH WIND       PRES   REMARKS
WAUSEON*       FAIR      59  57  94 MISG      30.08S
DEFIANCE       CLOUDY    63  60  90 N5        30.08S
6HR MIN TEMP:  62; 6HR MAX TEMP:  72;

FINDLAY        CLEAR     60  57  89 CALM      30.05F
6HR MIN TEMP:  60; 6HR MAX TEMP:  68;

TOLEDO EXPRESS PTCLDY    59  56  89 N7        30.07F
6HR MIN TEMP:  59; 6HR MAX TEMP:  71;

TOLEDO METCALF CLEAR     62  52  69 NE6       30.07S
6HR MIN TEMP:  62; 6HR MAX TEMP:  68;

LIMA           FOG       58  56  93 CALM      30.06F VSB 3/4
6HR MIN TEMP:  59; 6HR MAX TEMP:  71;


$$
&&


USA.gov is the U.S. government's official web portal to all federal, state and local government web resources and services.